Regional Weather Roundup
Issued by NWS

Home | Current Version | Previous Version | Text Only | Print | Product List | Glossary On
Versions: 1 2 3 4 5 6 7 8 9 10 11 12 13 14 15 16 17 18 19 20 21 22 23 24 25 26 27 28 29 30 31 32 33 34 35 36 37 38 39 40 41 42 43 44 45 46 47 48 49 50
000
ASHW40 PHFO 180012
RWRHI

WEATHER ROUNDUP FOR HAWAII
NATIONAL WEATHER SERVICE HONOLULU HI
200 PM HST TUE OCT 17 2017

THIS IS AN AUTOMATED REPORT THAT HAS NOT BEEN QUALITY CONTROLLED.

NOTE..."FAIR" INDICATES FEW OR NO CLOUDS BELOW 12,000 FEET WITH NO
SIGNIFICANT WEATHER AND/OR OBSTRUCTIONS TO VISIBILITY.

* - THESE SITES REPORT LIMITED FIELDS
# - BUOY DATA PROVIDED BY PACIFIC ISLANDS OCEAN OBSERVING SYSTEM.

HIZ001>004-180100-
KAUAI-NIIHAU-

CITY           SKY/WX    TMP DP  RH WIND       PRES   REMARKS
LIHUE APT      PTSUNNY   82  68  62 NE26G32   30.07F
PORT ALLEN*      N/A     84 N/A N/A NE24G36     N/A
POIPU*           N/A     82 N/A N/A NE13G26     N/A
PRINCEVILLE*     N/A     79 N/A N/A E15G24      N/A
KOKOLE POINT*  NOT AVBL
MOLOAA DAIRY*    N/A     82  70  65 E6G16       N/A
WAIMEA HTS*    NOT AVBL
PUU OPAE*      NOT AVBL
PUU LUA*       NOT AVBL
MAKAHA RIDGE*  NOT AVBL
$$

HIZ005>011-180100-
OAHU-

CITY           SKY/WX    TMP DP  RH WIND       PRES   REMARKS
HONOLULU       PTSUNNY   86  60  41 NE21G30   30.01F
KALAELOA       FAIR      86  61  42 E16G33    30.01F
KANEOHE MCB    FAIR      84  66  54 NE13G28   30.01F
WHEELER FIELD  FAIR      80  65  60 E22G31    30.02F
BELLOWS*       NOT AVBL
KAHUKU*        NOT AVBL
WHEELER*       NOT AVBL
WAIANAE HARBOR NOT AVBL
DILLINGHAM*      N/A     86  66  51 SW12G25     N/A
KAHUKU TRN*      N/A     72  57  60 W17G32      N/A
KAWAILOA*        N/A     75  64  69 NE16G33     N/A
KII*             N/A     82  68  61 NE21G30     N/A
MAKUA RANGE*     N/A     82  61  47 W16G33      N/A
OAHU FOREST NW NOT AVBL
SCHOFIELD BRK*   N/A     79  63  57 MISG        N/A
SCHOFIELD S*   NOT AVBL
WAIANAE VLY*   NOT AVBL
KUAOKALA*      NOT AVBL
HONOULIUULI*   NOT AVBL
MOKUOLOE IS*   NOT AVBL
PALEHUA*       NOT AVBL
WAIAWA PHB*    NOT AVBL
$$

HIZ012>013-180100-
MOLOKAI-

CITY           SKY/WX    TMP DP  RH WIND       PRES   REMARKS
MOLOKAI AIRPT  PTSUNNY   81  66  60 NE16G31   30.02F
KALAUPAPA      NOT AVBL
MAKAPULAPAI*   NOT AVBL
MOLOKAI 1*     NOT AVBL
PUU ALII*      NOT AVBL
$$

HIZ016-180100-
KAHOOLAWE-

CITY           SKY/WX    TMP DP  RH WIND       PRES   REMARKS
KAHOOLAWE*     NOT AVBL
HAKIOAWA*      NOT AVBL
HONOKANAIA*      N/A     83  63  50 NE18G38   29.93F
KANELOA*         N/A     79  63  57 E25G43    30.05F
KEALIALALO*    NOT AVBL
LUA MAKIKA*    NOT AVBL
$$

HIZ014>015-180100-
LANAI-

CITY           SKY/WX    TMP DP  RH WIND       PRES   REMARKS
LANAI CITY     FAIR      78  63  59 NE30G36   30.01F
LANAI 1*       NOT AVBL
$$

HIZ017>028-180100-
MAUI-

CITY           SKY/WX    TMP DP  RH WIND       PRES   REMARKS
KAHULUI        FAIR      85  67  54 NE24G36   30.00F
KAPALUA-W MAUI NOT AVBL
HANA AIRPORT   NOT AVBL
HANA*            N/A     81 N/A N/A NE14G22     N/A
HALEAKALA SUMM   N/A     43  36  75 NE24G38     N/A
MAALAEA BAY*   NOT AVBL
HALEAKALA*     NOT AVBL
KAUPO GAP*     NOT AVBL
KULA 1*          N/A     56  55  95 W3G10       N/A
$$

HIZ023>026-180100-
BIG ISLAND OF HAWAII COAST AND LOWER SLOPES-

CITY           SKY/WX    TMP DP  RH WIND       PRES   REMARKS
KAILUA KONA    PTSUNNY   83  65  54 S10       29.92S
HILO           HVY RAIN  71  68  90 E14G25    30.03F
HONOKAA*         N/A     72 N/A N/A VRB1        N/A
KAWAIHAE MWT*    N/A     88 N/A N/A W8G14       N/A
KAWAIHAE*      NOT AVBL
SOUTH POINT*     N/A     79 N/A N/A N28G41      N/A
UPOLU AIRPORT* NOT AVBL
KAMUELA*       NOT AVBL
HAKALAU*         N/A     58  51  79 N3G12       N/A
KALOKO-HONOKO* NOT AVBL
PALI 2*          N/A     72  61  68 SW20G30     N/A
KEALAKOMO*       N/A     82  61  47 NE25G35     N/A
KAUPULEHU*     NOT AVBL
KAPAPALA*        N/A     80  58  46 E15G32      N/A
LOWER KAHUKU*  NOT AVBL
PUHE CS*       NOT AVBL
PUHO CS*       NOT AVBL
PTA KEAMUKU*     N/A     72  54  53 NE32G47     N/A
WAIKOLOA*      NOT AVBL
$$

HIZ027>028-180100-
BIG ISLAND OF HAWAII INTERIOR AND SUMMMITS-

CITY           SKY/WX    TMP DP  RH WIND       PRES   REMARKS
BRADSHAW FIELD FAIR      68  46  44 SE6G20    30.25F
MK VISITOR CEN   N/A     61  41  48 W10         N/A
MAUNA KEA*       N/A     46   3  17 N18         N/A
MAUNA LOA*     NOT AVBL
MAUNA LOA 1*   NOT AVBL
PTA KIPUKA*      N/A     75  39  27 W13G29      N/A
PTA RANGE 17*    N/A     70  46  43 NW18G29     N/A
PTA WEST*        N/A     75  46  35 SE15G23     N/A
NENE CABIN*    NOT AVBL
AHUMOA*        NOT AVBL
PTA PORTABLE*  NOT AVBL
PUU MALI*        N/A     61  46  59 E23G36      N/A
$$

HIC003-180100-
NORTHWEST ISLANDS-

CITY           SKY/WX    TMP DP  RH WIND       PRES   REMARKS
MIDWAY ISLAND  MOSUNNY   82  73  74 E24       30.19F
MIDWAY NOS*    NOT AVBL
FRENCH FRIGATE NOT AVBL
$$

PHZ110>124-180-180100-
BUOY REPORTS

STATION/POSITION TIME  TEMP    WIND        PRES    WAVE   SWELL
                       AIR SEA DIR/SP/G            HT/PER HT/DIR
                 (UTC) (F)     (DEG/KT/KT) (MB)    (FT/S) (FT/D)
BUOY 51001       2350   79 81   60/ 21/ 27 1019.8F  11/10
BUOY 51101       2350   79 81   70/ 21/ 25 1019.9F  10/ 9   5/130
BUOY 51100       NOT AVBL
BUOY 51002       2350   80 80   60/ 23/ 29 1012.4F  12/10   7/ 80
BUOY 51003       2350   80 82   60/ 23/ 27 1013.8F  11/ 9   7/ 80
BUOY 51004       2350   79 81   50/ 21/ 25 1013.2F   9/ 9   5/ 50
WAIMEA BAY#      2332      78                N/A     8/ 8   2/330
MOKAPU POINT#    2334      81                N/A    10/10   3/ 40
LANAI#           NOT AVBL
BARBERS PT 2#    NOT AVBL
PAUWELA#         NOT AVBL
HILO#            2327      80                N/A     8/ 9   3/330
KANEOHE BAY#     NOT AVBL
KANEOHE BAY 2#   NOT AVBL
HANALEI#         2352      81                N/A    10/ 9   3/ 40
KAHULUI HARBOR   2348           50/ 18/ 24 1016.4F
HONOLULU HARBOR  2348           70/ 11/ 14 1017.0F
PEARL HARBOR#    2330      80                N/A     4/15   2/160
KILO NALU        NOT AVBL
HILO HARBOR      2348                      1016.7
MOKUOLOE         2336   80 80   80/ 17/ 23 1017.3F
NAWILIWILI       2348   79      50/ 17/ 21 1017.7F
WHOTS BUOY       NOT AVBL
BUOY 51028       NOT AVBL
$$

......................KEY........................................
  SKY/WX - SKY CONDITIONS/PRESENT WEATHER
  TMP    - TEMPERATURE IN FAHRENHEIT
  DWPT   - DEWPOINT IN FAHRENHEIT
  RH     - RELATIVE HUMIDITY IN PERCENT
  WIND   - DIRECTION AND SPEED /MPH FOR ISLANDS...KTS FOR BUOYS/
  PRES   - MEAN SEA LEVEL PRESSURE IN INCHES OF HG
  VSB    - VISIBILITY IN MILES
  HX     - HEAT INDEX
  WCI    - WIND CHILL INDEX
  VRB    - VARIABLE WIND DIRECTION
  N/A    - NOT AVAILABLE




USA.gov is the U.S. government's official web portal to all federal, state and local government web resources and services.